{"data":{"norad_id":68693,"epoch":"2026-05-25T08:04:44.749920Z","epoch_age_seconds":39117,"freshness":"FRESH","line1":"1 68693U 26080C   26145.33662905  .00000583  00000+0  41289-4 0  9993","line2":"2 68693  97.6610 220.8908 0015214 122.3594 237.9109 15.08642718  6213","mean_motion":15.08642718,"eccentricity":0.0015214,"inclination_deg":97.661,"raan_deg":220.8908,"arg_perigee_deg":122.3594,"mean_anomaly_deg":237.9109,"bstar":4.1289e-5,"rev_number":621,"period_min":95.450034843836,"perigee_km":529.82068607903,"apogee_km":550.87224757188,"semimajor_km":6918.4834668255,"source":"CELESTRAK","updated_at":"2026-05-25T13:38:08.022905Z"}}